Menifee, California
Current Conditions -  °F | °C
As of 2:15 PM on Tuesday 25 Nov 2014 (Local Time) from KF70 Reporting Station
Clear Clear  
Wind Chill: 77°   Ceiling: Unl
Heat Index: 77°   Visibility: 10mi
Dew Point:   Wind: 5mph
Humidity: 6%   Direction: 350°N
Pressure: 30.28"   Gusts: NA
Location:  33.66°N, 117.18°W
Report Text: KF70 252215Z AUTO 35004KT 10SM CLR 25/M16 A3028 RMK AO1
Loading
Personal Weather Stations






























Interactive Weather Map New forecast layout! Learn more

10-Day Weather Forecast

Advertisements
Track Severe Weather on mobile